METEOR 2-3

Satellite information

Favourite Embed

Satellite Type and Status

PAYLOADIN ORBIT

Key statistics

Satellite METEOR 2-3 at a glance.

Uptime

17371

Days in orbit

Revolutions

≈ 14.1

Per day

Orbit

LEO

Low Earth Orbit

Inclination

81.2

Latest

Satellite identification and parameters

Extended collection of information and parameters for METEOR 2-3.

Object identification

Identified? True

Debris? False

Object name: METEOR 2-3

International designator: 1977-117A

Object number (NORAD): 10514

Object ID (CCSDS): 10514

Country: COMMONWEALTH OF INDEPENDENT STATES (CIS)

Current information (Y/N): Y

RCS size: LARGE

Orbital parameters

Period: 102.047 minutes

Inclination: 81.2047 deg

SMA: 7233.694 km

Apoapsis: 871.746 km

Periapsis: 839.372 km

RAAN: 225.6905 deg

Eccentricy: 0.0022377

Argument of periapsis: 233.239 deg

Mean anomaly: 126.6728 deg

Mean motion: 14.1111553 rev/day

Mean motion (dot): 0.00000158 rev/day2

B* drag term: 0.000080638 1/REarth

Two-line elements (TLE)

Creation date: July 5, 2025, 5:45 p.m.

Reference frame: TEME

Reference center: EARTH

Epoch: July 5, 2025, 1:29 p.m. UTC

TLE line 0: 0 METEOR 2-3

TLE line 1: 1 10514U 77117A 25186.56207900 .00000158 00000-0 80638-4 0 9998

TLE line 2: 2 10514 81.2047 225.6905 0022377 233.2390 126.6728 14.11115530445936

Live tracking on map

Real-time ground track for satellite METEOR 2-3.

In-orbit conjunctions

A list of the most updated potential collisions computed for object METEOR 2-3.

Target Orbit TCA Probability of collision Miss distance Type
DMSP 5D-2 F13 DEB SSO 2025-01-10 16:53:54 0.0001096679 603.0 (m) DEBRIS
COSMOS 1275 DEB LEO 2024-11-30 06:09:56 0.0005077323 131.0 (m) DEBRIS
COSMOS 1275 DEB LEO 2024-11-13 23:24:28 0.0003316988 288.0 (m) DEBRIS
CZ-6A DEB SSO 2024-10-23 09:54:58 0.0007604659 297.0 (m) DEBRIS
DELTA 1 DEB SSO 2024-09-19 17:28:14 0.002005033 87.0 (m) DEBRIS

Associated space launch

Second generation soviet meteorological satellite

METEOR 2-3 was lifted into orbit during the mission ‘Vostok 8A92M | Meteor-2 3’, on board a Vostok 8A92M space rocket.

The launch took place on Dec. 14, 1977, 9:30 a.m. from 43/4 (43R).

For more information about the launch, click the button.

Launch to space Vostok 8A92M | Meteor-2 3
Vostok 8A92M | Meteor-2 3

Agency: N/A

Status: Launch Successful

Launch date: Dec. 14, 1977, 9:30 a.m. UTC

Rocket: Vostok 8A92M

Launch pad: 43/4 (43R)

Location: Plesetsk Cosmodrome, Russian Federation

...

Latest news about this satellite

There are no fresh news available about this satellite. Check back as we update our databases every day.


Newsletter sign-up

Weekly statistics, charts and insights to help you stay on top of the space industry.